Regional Weather Roundup
Issued by NWS

Home | Current Version | Previous Version | Graphics & Text | Print | Product List | Glossary On
Versions: 1 2 3 4 5 6 7 8 9 10 11 12 13 14 15 16 17 18 19 20 21 22 23 24 25 26 27 28 29 30 31 32 33 34 35 36 37 38 39 40 41 42 43 44 45 46 47 48 49 50
000
ASUS43 KDTX 211810
RWRMI
MICHIGAN HOURLY REGIONAL WEATHER ROUNDUP
NATIONAL WEATHER SERVICE DETROIT/PONTIAC MI
200 PM EDT THU AUG 21 2014

NOTE: "FAIR" INDICATES FEW OR NO CLOUDS BELOW 12,000 FEET WITH NO
SIGNIFICANT WEATHER AND/OR OBSTRUCTION TO VISIBILITY.

MIZ047>049-052>055-059>063-066>070-074>076-081>083-211900-
SOUTHEAST LOWER MICHIGAN

CITY           SKY/WX    TMP DP  RH WIND       PRES   REMARKS
ADRIAN         CLOUDY    80  67  64 SW7       29.99F
6HR MIN TEMP:  66; 6HR MAX TEMP:  80;

ALMA           CLOUDY    74  64  73 E6        29.99S
ANN ARBOR      CLOUDY    79  68  69 VRB3      29.98F
BAD AXE        CLOUDY    74  65  71 W6        29.99S
6HR MIN TEMP:  64; 6HR MAX TEMP:  75;

DETROIT CITY   PTSUNNY   79  66  64 SE6       29.99F
6HR MIN TEMP:  70; 6HR MAX TEMP:  79;

DETROIT        CLOUDY    78  68  71 SE6       29.99F
6HR MIN TEMP:  70; 6HR MAX TEMP:  79;

FLINT          PTSUNNY   79  65  62 S5        29.99F
6HR MIN TEMP:  66; 6HR MAX TEMP:  79;

GROSSE ILE     PTSUNNY   75  70  83 CALM      29.98F HAZE
HILLSDALE      CLOUDY    80  69  68 CALM      29.98F
HOWELL         CLOUDY    74  66  74 SE3       29.99F
6HR MIN TEMP:  63; 6HR MAX TEMP:  75;


CITY           SKY/WX    TMP DP  RH WIND       PRES   REMARKS
JACKSON        PTSUNNY   78  71  79 VRB3      29.98F
6HR MIN TEMP:  66; 6HR MAX TEMP:  78; 6HR PCP: TRACE;

LAMBERTVILLE   CLOUDY    81  68  65 SW6       29.99F
LANSING        CLOUDY    77  66  68 S5        29.98F
6HR MIN TEMP:  64; 6HR MAX TEMP:  77;

LAPEER         NOT AVBL
MASON          CLOUDY    76  69  81 SE5       29.99S
MONROE         CLOUDY    79  70  73 CALM      29.97F
MT. CLEMENS    PTSUNNY   75  63  65 SE5       29.99F
6HR MIN TEMP:  66; 6HR MAX TEMP:  75;

PONTIAC        CLOUDY    76  65  68 S6        29.99F
6HR MIN TEMP:  65; 6HR MAX TEMP:  76;

PORT HOPE        N/A     70  63  78 NE7       29.98S
6HR MIN TEMP:  66; 6HR MAX TEMP:  71;

PORT HURON     CLOUDY    77  68  73 SW5       30.00S
TRI CITIES     PTSUNNY   75  63  66 NE3       30.00S
6HR MIN TEMP:  63; 6HR MAX TEMP:  75;

YPSILANTI      PTSUNNY   84  69  60 S9        29.99F
6HR MIN TEMP:  70; 6HR MAX TEMP:  85;

$$
MIZ043>046-050>051-056>058-064>065-071>073-077>080-211900-
SOUTHWEST LOWER MICHIGAN

CITY           SKY/WX    TMP DP  RH WIND       PRES   REMARKS
BATTLE CREEK   CLOUDY    80  68  66 SW3       29.97F
6HR MIN TEMP:  69; 6HR MAX TEMP:  81;

BENTON HARBOR  CLOUDY    79  70  74 VRB6      29.97R
6HR MIN TEMP:  70; 6HR MAX TEMP:  80;

BIG RAPIDS     CLOUDY    76  66  71 E6        29.97F
6HR MIN TEMP:  57; 6HR MAX TEMP:  76;

COLDWATER      CLOUDY    80  69  68 CALM      29.97F
6HR MIN TEMP:  69; 6HR MAX TEMP:  81;

HOLLAND        CLOUDY    81  71  71 VRB5      29.96R
6HR MIN TEMP:  69; 6HR MAX TEMP:  81;

GRAND RAPIDS   CLOUDY    79  72  79 E5        29.96F
6HR MIN TEMP:  66; 6HR MAX TEMP:  79;

KALAMAZOO      PTSUNNY   82  68  62 S6        29.96F
6HR MIN TEMP:  70; 6HR MAX TEMP:  82;

MARSHALL       CLOUDY    79  68  69 CALM      29.96F
MUSKEGON       CLOUDY    79  68  69 SE7       29.95R
6HR MIN TEMP:  65; 6HR MAX TEMP:  80;

$$
MIZ016>042-211900-
NORTHERN LOWER MICHIGAN

CITY           SKY/WX    TMP DP  RH WIND       PRES   REMARKS
ALPENA         PTSUNNY   72  62  71 VRB3      29.98F
6HR MIN TEMP:  65; 6HR MAX TEMP:  73;

BEAVER ISLAND  MOSUNNY   73  64  72 W5        29.99R
6HR MIN TEMP:  62; 6HR MAX TEMP:  73;

BELLAIRE       CLOUDY    74  61  63 CALM      29.98R
6HR MIN TEMP:  64; 6HR MAX TEMP:  75;

CADILLAC       CLOUDY    74  63  69 CALM      29.99S
CHARLEVOIX     SUNNY     73  64  72 N5        30.01S
6HR MIN TEMP:  64; 6HR MAX TEMP:  73;

FRANKFORT      MOCLDY    77  61  56 NE5       29.96S
GAYLORD        PTSUNNY   71  60  68 S5        30.00S
6HR MIN TEMP:  60; 6HR MAX TEMP:  72;

GRAYLING       CLOUDY    74  59  59 CALM      30.00S
6HR MIN TEMP:  62; 6HR MAX TEMP:  74;

HARBOR SPRINGS CLOUDY    72  62  70 SW7       29.98R
HOUGHTON LAKE  PTSUNNY   74  59  59 W5        30.00S
6HR MIN TEMP:  62; 6HR MAX TEMP:  75;

MANISTEE       CLOUDY    75  61  60 E5        29.97F
OSCODA         CLOUDY    69  63  80 E7        29.98S
PELLSTON       PTSUNNY   74  62  66 N6        29.99S
6HR MIN TEMP:  63; 6HR MAX TEMP:  77;

TRAVERSE CITY  PTSUNNY   74  62  66 N6        29.97S
6HR MIN TEMP:  63; 6HR MAX TEMP:  74;

$$
MIZ007>008-015-211900-
EASTERN UPPER MICHIGAN

CITY           SKY/WX    TMP DP  RH WIND       PRES   REMARKS
KINROSS        PTSUNNY   72  64  78 CALM      29.99S
6HR MIN TEMP:  59; 6HR MAX TEMP:  72;

MACKINAC ISLAN CLOUDY    67  64  90 CALM      29.98F
6HR MIN TEMP:  60; 6HR MAX TEMP:  68;

NEWBERRY       CLOUDY    73  62  68 W5        29.97F
S. S. MARIE    PTSUNNY   72  63  73 CALM      29.98S
6HR MIN TEMP:  60; 6HR MAX TEMP:  73;

$$
MIZ004>006-011>014-085-211900-
CENTRAL UPPER MICHIGAN

CITY           SKY/WX    TMP DP  RH WIND       PRES   REMARKS
MANISTIQUE     CLOUDY    67  62  84 S6        29.99R
ESCANABA       CLOUDY    66  61  82 SE8       29.98S
6HR MIN TEMP:  61; 6HR MAX TEMP:  66;

MENOMINEE      CLOUDY    70  63  78 SE8       29.96F
6HR MIN TEMP:  64; 6HR MAX TEMP:  70;

SAWYER-GWINN   CLOUDY    68  61  77 S6        29.98S
$$
MIZ001>003-009>011-084-211900-
WESTERN UPPER MICHIGAN

CITY           SKY/WX    TMP DP  RH WIND       PRES   REMARKS
IRON MOUNTAIN  CLOUDY    69  62  78 S6        29.96S
6HR MIN TEMP:  60; 6HR MAX TEMP:  70;

HOUGHTON       PTSUNNY   67  61  81 E8        29.96F
6HR MIN TEMP:  60; 6HR MAX TEMP:  67;

COPPER HARBOR    N/A     65  61  87 VRB3      29.96F
6HR MIN TEMP:  55; 6HR MAX TEMP:  65;

IRONWOOD       CLOUDY    72  66  83 E8        29.88F
$$

ABBREVIATIONS USED IN REMARKS
   TC - TEMPERATURE IN CELSIUS
  WCI - WIND CHILL INDEX
   HX - HEAT INDEX
  VSB - VISIBILITY



USA.gov is the U.S. government's official web portal to all federal, state and local government web resources and services.